Weather in Tilichiki

Russia / Kamchatka Krai     60°25′41″N   166°03′20″E
temp.,
°C
wind,
m/s
gust,
m/s
humid.,
%
clouds,
%
prec.,
mm/h
press.,
hPa
HPBL,
m
28 february, sun
sun2800:00−32n448813 0.0 102572
03:00−31n4591100 0.0 1025113
06:00−30n5694100 0.1 1025173
09:00−28n569699 0.1 1025184
12:00−26n579699 0.1 1023212
15:00−22n579595 0.0 1021259
18:00−22n479598 0.0 1018149
21:00−25n5795100 0.0 1017156
1 march, mon
mon100:00−26n71097100 0.0 1011213
03:00−28n81097100 0.0 1005240
06:00−29n71094100 0.0 1001243
09:00−29n6997100 0.5 999295
12:00−26n6896100 1.4 996351
15:00−24n5892100 0.3 995445
18:00−23n5886100 0.4 996467
21:00−25n568797 0.0 998171
2 march, tue
tue200:00−27n458998 0.0 100095
03:00−26n468987 0.0 1002141
06:00−26n338989 0.0 100542
09:00−25n3388100 0.0 100849
12:00−22n3586100 0.0 1010284
15:00−21n3587100 0.0 1013297
18:00−24n238981 0.0 101620
21:00−26n228594 0.0 102020
3 march, wed
wed300:00−26n238596 0.0 102222
03:00−26n2285100 0.0 102426
06:00−26n1285100 0.0 102620
09:00−26nne128433 0.0 102819
12:00−22nne128249 0.0 1028116
15:00−21nne348794 0.0 1026174
18:00−21nne458997 0.0 1022161
21:00−19nne5791100 0.0 1016174
4 march, thu
thu400:00−15ne41097100 0.8 1006414
03:00−1se212994100 4.8 9941142
06:000se192998100 16.0 9851252
09:00+1se172798100 10.4 9771292
12:000s111699100 17.9 973890
15:00−13wnw111891100 3.2 975626
18:00−14wsw71584100 3.4 9821210
21:00−17wsw71680100 0.0 9881016